DECAYED

STARLINK-3894, 52499 (Decayed)

Orbit data source: Space-Track

STARLINK-3894, 52499 was a payload satellite owned by SpaceX/Seattle (US) in LEO that was launched on Fri, 06 May 2022 UTC via an FALCON 9 launch vehicle from the Air Force Eastern Test Range (AFETR). Payload-class satellites include a variety of spacecraft equipped with specific instruments for various scientific and technological missions. These include communications satellites like Starlink; space stations such as the ISS; scientific satellites like the Hubble; Earth observation satellites from companies like Planet Labs, Umbra, and HawkEye 360; GPS; miniature CubeSats for education and research; and military/defense satellites.

Not visible in the next 10 days
Identifier
52499, 2022-049BA
Orbit
Decayed
Country
Flag of USUS
Related business
Manufacturer
SpaceX/Seattle
Mission
Decayed Commercial Communications
Bus & Motor
STARLINK, Unknown motor
Mass
297 kg wet, ~220 kg dry
Launch date (UTC)
2022-05-06 (4 years ago)
Launch vehicle
FALCON 9
Launch site
Air Force Eastern Test Range (AFETR)
Object type
Payload
Rocket body
Debris
Shape & HBR
Box + 1 Pan, 10.1 m
Radar Cross Section
13.562 m², Large (>1 m²)

Expand to show TLE details & history
Last TLE update: 1 month ago

TLE from 1 month ago
0 STARLINK-3894
1 52499U 22049BA  26198.08443473  .08589609  12463-4  25266-3 0  9994
2 52499  53.2029 158.5075 0005453 255.7359 104.3086 16.44967354232341
Epoch: 2026-07-17T02:01Z
TLE epoch observation values (Epoch: 2026-07-17T02:01:35.160Z)
Latitude
-0.00006°
Longitude
-166.80566°
Altitude
154.453 km
Speed
7.814 km/s
True Right ascension
10h 34m 01s
True Declination
0° 00' 00"
Sunlit
Object was in daylight at epoch
Visualization orbit readout
Latitude
Unknown
Longitude
Unknown
Altitude
Unknown
Speed
Unknown
Apparent Right ascension
Unknown
Apparent Declination
Unknown
Sunlit
N/A
Visualization observer readout
Local Sidereal Time
16:40:37
Azimuth
Unknown
Elevation
Unknown
Doppler factor
Unknown
Orbital elements
Apogee altitude
156.445 km
Perigee altitude
149.322 km
Semi-major axis
6,531.02 km
Eccentricity
0.00055
Inclination
53.2029°
RAAN
158.5075°
Arg. of periapsis
255.7359°
True anomaly
104.36914°
Mean anomaly
104.3086°
Eccentric anomaly
104.33887°
Mean motion
4.11218 °/min
Orbital period
87.54 mins
BSTAR
0.00025266
Loading maneuver chart data...
Computing Atmospheric mass density...
Loading historical data...
Loading historical data...
Loading historical data...
Loading historical data...
Loading historical data...
Loading historical data...
Loading historical data...

Documentation

Showing up to 5 results
|